Theta_e
287 287 286 285 285 285 285 284 284 284 284 284 284 284 283 283 283 284 284 284 286 286 287 288 289 291 294 297 300 302 305 312 327 308 305 300 301 302 303 302 302 304 305
283 285 286 285 283 284 284 284 283 282 282 282 282 282 283 283 282 283 283 283 283 284 284 285 286 287 288 290 292 294 296 298 310 302 296 293 293 296 296 297 297 298 299
286 283 284 286 285 284 283 284 283 282 281 280 281 280 281 282 282 282 283 283 282 282 283 283 284 285 285 286 288 289 291 293 295 295 293 292 291 291 295 295 296 294 292
286 287 284 285 286 286 284 285 285 284 282 281 280 280 280 280 281 281 281 282 281 281 282 283 282 283 283 284 284 287 287 288 289 288 288 287 288 288 289 290 293 293 291
286 286 286 286 285 286 285 285 285 285 284 282 281 279 279 279 280 280 280 280 280 280 280 280 282 282 282 282 282 283 285 285 285 286 285 284 284 285 287 287 289 290 291
287 286 285 285 285 285 284 284 284 284 284 283 281 280 279 279 279 280 279 279 278 278 278 278 279 281 281 280 280 281 281 283 284 283 283 282 282 283 284 285 287 288 290
286 286 285 285 285 284 284 283 283 283 282 282 281 280 278 278 279 279 279 278 277 277 276 276 277 277 279 279 279 279 279 279 280 281 280 280 280 281 283 284 285 286 287
286 285 285 284 284 284 284 283 282 282 281 281 280 279 278 277 277 279 279 279 277 276 275 275 275 275 277 278 278 277 278 278 278 279 279 278 278 279 281 282 284 285 286
285 284 284 284 283 283 283 283 282 282 281 280 279 278 277 276 276 277 280 279 278 277 275 274 274 274 275 276 276 277 277 277 278 278 278 278 278 277 279 279 281 282 284
284 283 283 282 282 282 282 282 282 282 281 280 279 278 277 276 275 275 277 278 278 277 276 274 274 274 274 274 274 275 276 276 277 277 277 277 277 277 277 277 278 280 281
284 283 282 282 282 282 282 282 282 281 281 281 281 280 279 277 276 275 274 275 276 276 276 274 273 274 274 273 273 274 274 275 276 276 276 276 275 275 276 276 277 278 278
284 283 283 282 282 281 282 282 282 282 282 282 282 282 280 279 277 276 275 274 275 275 274 274 274 274 274 274 273 274 274 275 275 275 275 275 274 274 275 275 276 276 277
284 284 283 283 282 282 282 282 283 282 282 282 282 281 280 279 277 276 276 275 274 275 274 274 275 275 275 275 275 274 274 274 274 275 275 274 274 273 274 274 275 276 276
284 284 283 283 282 282 282 281 281 281 281 281 280 280 280 278 275 274 274 274 274 275 276 276 276 276 276 276 275 275 274 273 273 274 274 273 273 273 273 273 274 275 276
284 284 283 282 282 282 280 280 280 276 276 278 278 278 277 276 274 273 273 273 273 274 276 277 276 276 276 275 275 274 274 273 273 273 273 273 272 272 272 273 273 274 275
284 283 283 283 282 282 281 279 275 274 274 274 274 275 276 273 273 273 273 273 273 274 276 277 276 276 276 275 274 274 273 273 272 272 272 272 272 271 271 272 272 273 273
284 284 282 282 282 281 280 280 281 275 275 273 273 273 273 273 273 273 273 274 274 275 276 276 276 275 275 275 274 274 273 272 272 271 271 271 271 270 271 271 271 271 271
283 282 282 282 281 280 280 279 279 279 279 278 276 275 274 274 273 273 273 275 276 276 275 275 275 275 275 274 274 273 272 272 271 271 271 270 270 270 269 270 270 270 270
282 281 281 281 280 279 279 278 278 278 278 278 278 276 275 275 275 275 275 275 275 274 274 274 273 273 273 273 273 273 272 272 271 271 271 270 270 269 269 269 269 269 269
281 281 280 280 279 279 279 279 278 278 278 279 278 278 277 275 275 275 275 274 274 273 272 272 272 272 271 271 272 272 273 272 272 271 270 270 270 268 268 268 268 268 268
282 280 279 280 280 279 279 279 278 278 278 278 278 276 274 273 274 274 274 273 272 271 271 270 270 270 270 270 270 269 270 270 271 271 270 269 269 268 268 268 268 267 268
282 281 279 280 280 279 279 278 278 278 277 277 277 276 274 274 273 273 272 272 270 270 269 268 268 268 268 268 267 267 267 268 268 269 269 269 268 268 268 267 267 267 267
280 280 280 279 278 278 277 277 277 277 277 276 275 274 273 273 272 271 270 270 269 267 267 266 266 265 265 265 264 264 265 266 266 265 264 265 267 267 267 267 266 266 266
279 279 279 278 277 277 278 277 277 276 274 274 273 273 272 271 270 269 268 268 266 265 264 264 263 263 263 262 262 261 262 262 261 261 262 263 264 266 267 266 266 266 265
278 278 277 277 277 277 277 276 275 274 273 272 271 271 270 268 268 267 266 265 264 263 262 261 262 261 261 260 259 260 260 259 259 259 260 262 263 265 266 266 265 265 265
278 277 277 277 276 276 275 274 273 272 271 270 269 268 267 266 266 265 264 263 262 259 259 261 260 259 259 259 259 258 257 257 257 257 258 261 263 265 265 265 264 264 264
Wind_Speed
11 13 15 17 16 18 21 22 23 23 24 26 28 29 34 35 34 30 29 33 30 33 35 29 31 22 21 19 16 17 17 7 4 9 11 9 16 22 20 19 21 20 23
13 11 11 13 22 18 18 21 24 25 23 25 26 29 32 34 36 35 36 35 34 37 37 36 35 29 30 30 25 26 24 23 5 13 13 21 17 18 21 20 19 15 22
6 16 12 12 15 19 22 18 24 25 29 29 30 34 35 34 37 36 28 31 36 39 38 42 37 42 34 32 26 28 28 30 28 14 13 19 24 25 26 23 22 20 25
8 8 13 15 14 13 16 18 18 23 26 29 34 32 34 33 35 29 31 31 35 38 40 38 41 40 36 31 33 32 34 31 29 25 20 20 18 24 27 21 19 24 26
8 10 11 12 13 13 15 17 18 20 23 25 27 29 29 31 31 28 30 33 34 34 36 37 39 36 40 44 38 31 34 31 25 22 25 20 22 20 22 18 12 13 16
8 9 10 12 12 13 15 17 18 20 21 23 25 26 27 30 29 29 28 30 33 34 33 31 33 35 35 37 35 43 40 32 29 20 23 15 25 20 21 19 20 17 4
8 9 10 11 12 13 15 17 18 19 20 22 24 26 28 27 27 25 26 29 34 34 34 34 32 33 28 27 30 32 38 37 34 19 26 22 24 22 18 17 17 13 6
8 9 10 11 12 13 14 16 18 18 19 21 22 24 26 32 29 25 23 25 29 32 37 33 32 34 33 27 27 30 29 31 29 28 24 22 23 22 19 13 13 8 5
9 9 10 10 11 12 14 15 15 16 18 19 21 23 25 29 32 29 21 24 24 26 27 35 33 35 33 28 26 25 25 24 20 22 21 21 21 23 21 16 20 16 10
8 8 9 9 10 12 12 13 13 13 14 15 18 20 23 26 33 33 26 22 23 22 23 25 30 31 30 29 24 21 20 18 16 16 20 18 18 20 22 23 21 17 16
8 8 8 8 9 9 9 9 10 12 12 11 12 14 16 21 24 28 29 24 22 19 20 21 24 25 27 26 25 24 20 16 18 18 18 19 19 21 21 21 18 15 12
8 7 7 6 7 8 7 8 9 8 9 9 10 12 15 15 19 20 23 23 19 17 19 17 18 20 22 26 28 25 24 22 23 21 21 21 22 23 21 21 17 15 11
8 7 6 5 5 6 7 7 7 8 9 10 11 12 13 14 15 17 18 18 17 15 13 16 17 17 18 19 22 23 24 24 22 21 20 20 20 21 20 23 21 20 17
8 7 6 5 4 4 5 6 7 8 8 9 10 11 11 14 16 17 17 18 17 13 13 13 14 14 16 16 19 20 21 20 18 18 18 18 18 20 20 20 19 20 16
8 6 5 4 3 5 6 6 6 8 8 7 8 7 10 11 13 15 16 15 15 14 13 13 14 15 15 17 17 18 18 19 20 20 19 19 19 20 21 19 19 19 18
7 6 4 4 3 2 3 5 5 6 6 7 8 9 7 9 10 13 15 12 15 16 14 15 16 17 17 17 17 17 18 19 19 19 18 19 20 21 22 21 20 20 20
7 6 5 4 3 3 2 2 3 3 2 4 4 5 7 7 8 11 14 15 8 15 15 15 15 16 17 16 16 17 17 17 17 18 18 18 19 19 20 21 20 20 21
5 7 5 4 3 3 2 1 1 2 2 2 2 3 5 11 10 9 12 16 15 14 14 15 16 16 16 16 15 15 16 17 17 17 18 18 18 20 21 22 23 23 24
7 7 6 5 4 4 3 2 1 2 4 5 6 4 2 8 13 9 10 13 15 16 16 16 16 17 17 17 16 14 14 14 14 16 17 18 18 20 22 22 23 23 24
7 6 6 5 4 4 3 3 3 4 5 6 7 6 7 13 15 13 12 13 14 15 15 16 16 16 17 17 18 18 17 16 14 15 15 16 14 17 19 21 22 23 24
7 6 6 6 5 4 4 4 4 5 6 7 8 1 6 10 12 12 15 14 14 15 15 16 16 16 17 17 18 18 20 22 18 16 17 17 14 18 19 20 20 22 23
7 6 6 6 5 5 5 5 5 6 7 8 8 5 7 10 11 13 14 14 14 14 14 15 16 16 16 17 17 18 19 20 19 20 19 17 17 19 19 20 21 21 23
6 6 6 5 5 3 4 5 6 6 6 8 9 10 10 12 13 14 14 14 13 14 14 14 15 15 15 16 16 17 18 19 19 18 22 23 22 20 19 20 20 21 21
6 6 5 3 3 4 4 4 5 4 5 7 8 10 12 13 13 14 14 13 14 13 14 14 15 15 15 17 16 17 17 19 17 19 21 23 25 25 19 19 20 20 21
6 5 4 3 3 3 3 4 4 4 7 9 10 11 12 12 12 12 12 13 13 14 14 15 15 15 17 18 19 18 18 21 24 20 21 23 24 22 21 18 18 20 21
5 4 3 2 2 2 2 3 4 6 8 9 10 10 10 11 11 11 12 12 13 15 15 15 16 17 18 18 16 16 22 20 20 20 18 21 19 17 15 13 16 19 21
Wind_Direction
40 39 36 30 29 23 22 15 13 20 19 23 18 17 22 21 22 25 26 31 30 34 38 37 37 34 49 41 35 24 11 358 244 71 70 58 80 88 85 95 85 94 97
48 49 42 29 37 34 29 22 23 27 29 28 30 27 25 24 25 26 27 31 33 36 36 36 36 34 43 48 44 41 26 13 329 108 47 42 53 74 89 70 69 66 87
46 49 46 38 28 27 32 22 24 23 30 32 33 32 27 24 30 25 25 33 36 40 36 38 33 41 34 41 44 51 43 42 50 87 97 71 52 59 70 65 68 50 46
55 54 46 44 39 28 26 31 27 26 30 32 37 36 30 27 33 24 29 34 37 39 41 40 41 44 41 38 41 44 48 46 56 62 46 55 53 42 48 38 53 60 38
70 57 50 47 41 36 35 34 36 32 33 36 37 37 35 32 34 31 34 35 36 38 39 39 41 43 48 50 45 40 55 51 40 47 48 33 43 43 44 21 31 47 43
72 65 56 54 49 41 42 40 38 38 34 36 38 39 36 32 32 35 37 38 39 37 36 37 34 37 42 47 49 51 54 55 49 43 52 23 37 31 42 33 31 25 22
82 69 60 56 52 47 47 47 44 42 38 36 37 38 38 33 30 36 41 41 44 38 34 34 36 35 38 44 45 51 52 54 57 49 56 26 35 18 29 33 34 29 46
83 71 62 58 55 52 50 49 47 44 42 39 36 37 38 31 28 32 40 44 47 43 37 34 35 33 32 40 45 47 48 47 48 48 55 44 40 27 26 25 36 30 62
89 78 68 62 60 56 53 49 48 47 44 41 37 34 34 33 31 30 38 42 44 44 39 39 36 33 31 37 42 44 43 43 43 48 47 45 37 33 34 33 32 25 19
104 90 82 74 68 62 56 49 47 50 47 42 38 35 32 29 26 29 35 38 38 37 35 35 35 35 35 39 45 45 43 39 42 45 44 42 34 31 28 33 29 28 10
125 108 93 84 76 66 61 55 53 49 47 43 47 44 38 35 27 28 31 36 32 33 33 29 26 30 36 39 43 40 34 32 38 42 42 37 30 24 22 24 26 24 13
138 128 113 95 80 68 60 54 47 42 46 43 41 44 41 38 34 29 27 30 30 32 29 25 26 28 28 29 32 31 33 31 30 30 28 23 16 10 11 12 11 11 0
153 144 130 115 96 73 56 43 38 36 34 30 31 33 35 30 25 21 25 26 24 22 22 24 18 20 24 30 30 29 29 26 25 24 22 17 10 3 6 3 2 360 354
164 155 143 125 107 93 69 53 44 30 30 32 27 23 26 24 19 16 16 14 15 19 18 21 16 16 23 24 24 25 28 25 22 20 15 10 6 5 6 359 356 352 347
175 165 157 148 139 102 72 54 68 55 49 32 18 30 23 26 18 11 8 10 7 349 350 13 15 16 18 17 18 19 18 16 16 13 7 6 3 2 1 355 355 351 348
186 186 175 170 169 174 155 109 70 78 65 55 42 44 48 34 9 1 356 351 355 350 359 7 8 7 7 8 9 8 10 10 7 4 1 4 360 357 353 353 353 350 347
199 183 176 186 192 190 201 233 190 162 50 50 41 38 30 8 357 355 351 342 342 348 1 358 358 355 352 354 355 357 358 359 357 357 355 357 353 349 349 348 347 346 341
182 172 171 168 173 176 181 183 328 326 299 248 294 320 344 9 343 333 351 347 357 355 354 349 346 342 339 339 340 341 338 340 346 347 347 350 349 346 346 345 344 344 339
176 179 180 183 183 181 181 195 251 286 310 312 320 246 276 345 329 314 335 348 346 343 344 340 339 337 334 332 328 326 325 323 329 333 337 340 341 343 340 338 336 335 332
187 179 187 192 193 207 218 247 266 286 298 308 315 321 328 337 336 336 341 342 340 337 335 333 332 331 329 328 327 324 317 315 318 321 323 323 329 335 329 331 331 330 327
190 193 201 211 221 230 248 263 280 288 297 311 320 29 343 344 322 329 332 334 337 332 328 327 325 324 324 325 325 326 324 323 319 313 310 311 318 321 323 324 325 323 324
204 203 208 226 233 238 258 270 282 294 303 308 317 323 348 329 326 325 324 329 327 322 323 322 320 319 320 322 324 321 318 319 319 320 316 311 309 311 315 319 320 324 322
203 208 215 225 236 257 275 261 276 290 308 324 323 318 321 320 321 319 320 322 320 320 318 317 316 316 316 319 318 315 314 315 320 319 320 317 312 304 304 308 314 315 320
195 198 213 223 247 265 271 286 302 317 313 310 315 315 316 317 316 317 317 321 318 316 315 315 313 312 312 314 312 310 309 314 315 309 309 306 300 296 290 300 306 311 317
173 177 191 224 245 266 298 296 311 315 312 312 313 312 313 314 314 315 315 315 315 314 314 315 313 311 313 311 312 313 300 300 308 309 305 305 295 286 283 291 302 312 314
180 193 209 226 261 269 298 317 311 311 308 309 310 311 312 313 313 313 315 316 314 313 316 312 309 310 311 311 311 312 313 318 314 306 302 309 297 286 285 299 306 308 311